Terug naar catalogus

COSMOS 1275 DEB

ActiefPO
NORAD 12673·DEBRIS·🇷🇺 Russia

Gelanceerd Jun 4, 1981 vanaf Plesetsk Cosmodrome

Loading…

Volgende Passages (komende 24 uur)

TLE

VersSource: Space-Track

Epoch: Sep 14, 2026, 11:29 UTC

1 12673U 81053AD  26257.47856892  .00001196  00000-0  63415-3 0  9996
2 12673  82.8462  70.4558 0036707 304.6487  83.1978 14.12584186287503

Volg COSMOS 1275 DEB in realtime met AllMySat

Download on the App Store